Weather History for KPQL - January, 2013

Change the Weather History Date:

Tuesday, January 15, 2013

  Actual Average Record
Temperature  
Mean Temperature 54 °F -  
Max Temperature 64 °F 57 °F 76 °F (1950)
Min Temperature 44 °F 39 °F 21 °F (1964)
Degree Days  
Heating Degree Days 11    
Growing Degree Days 4 (Base 50)    
Moisture  
Dew Point 53 °F    
Average Humidity 95    
Maximum Humidity 100    
Minimum Humidity 84    
Precipitation  
Precipitation 0.05 in - - ()
Sea Level Pressure  
Sea Level Pressure 30.00 in    
Wind  
Wind Speed 5 mph (North)    
Max Wind Speed 12 mph    
Max Gust Speed -    
Visibility 3 miles    
Events Fog , Rain    
Averages and records for this station are not official NWS values.
T = Trace of Precipitation, MM = Missing Value Source: NWS Daily Summary

Daily Weather History Graph

Daily Weather History Graph

Search for Another Location

Airport or City:

Trip Planner

Search our weather history database for the weather conditions in past years. The results will help you decide how hot, cold, wet, or windy it might be!

Date:

Astronomy

Jan. 15, 2013 Rise Set
Actual Time 6:51 AM CST 5:15 PM CST
Civil Twilight 6:25 AM CST 5:41 PM CST
Nautical Twilight 5:56 AM CST 6:11 PM CST
Astronomical Twilight 5:27 AM CST 6:40 PM CST
Moon 9:18 AM CST (1/15) 9:41 PM CST (1/15)
Length of Visible Light 11h 16m
Length of Day
10h 24m
Waxing Crescent, 19% of the Moon is Illuminated
Jan 15
Waxing Crescent
Jan 18
First Quarter
Jan 26
Full
Feb 3
Last Quarter
Feb 10
New

Hourly Weather History & Observations

Time (CST) Temp. Windchill Dew Point Humidity Pressure Visibility Wind Dir Wind Speed Gust Speed Precip Events Conditions
12:14 AM 44.6 °F 40.2 °F 44.6 °F 100% 30.07 in 2.5 mi North 8.1 mph - N/A   Overcast
12:53 AM 44.1 °F 38.1 °F 44.1 °F 100% 30.08 in 2.5 mi North 11.5 mph - 0.00 in Rain Light Rain
1:53 AM 44.1 °F 39.0 °F 43.0 °F 96% 30.06 in 2.0 mi NNE 9.2 mph - N/A   Overcast
2:04 AM 44.6 °F 39.7 °F 42.8 °F 93% 30.05 in 1.8 mi NNE 9.2 mph - N/A   Overcast
3:53 AM 45.0 °F 41.8 °F 45.0 °F 100% 30.05 in 1.2 mi North 5.8 mph - N/A   Overcast
4:53 AM 46.0 °F 43.1 °F 46.0 °F 100% 30.03 in 1.0 mi NNE 5.8 mph - N/A   Mist
5:12 AM 46.4 °F 43.5 °F 46.4 °F 100% 30.03 in 0.8 mi North 5.8 mph - N/A   Mist
5:53 AM 46.9 °F - 46.9 °F 100% 30.04 in 1.0 mi North 5.8 mph - N/A   Mist
6:53 AM 46.9 °F - 46.9 °F 100% 30.05 in 1.0 mi NNE 5.8 mph - N/A   Mist
7:14 AM 46.4 °F 42.9 °F 46.4 °F 100% 30.04 in 0.5 mi NNE 6.9 mph - N/A Fog Fog
7:53 AM 48.0 °F - 46.9 °F 96% 30.06 in 0.5 mi North 5.8 mph - N/A Fog Fog
8:53 AM 48.9 °F - 48.9 °F 100% 30.06 in 0.5 mi NE 5.8 mph - N/A Fog Fog
9:53 AM 51.1 °F - 51.1 °F 100% 30.06 in 0.5 mi NNE 3.5 mph - N/A Fog Fog
10:45 AM 53.6 °F - 53.6 °F 100% 30.03 in 1.0 mi Calm Calm - N/A   Overcast
10:53 AM 54.0 °F - 53.1 °F 97% 30.03 in 0.8 mi Calm Calm - N/A   Overcast
11:53 AM 57.0 °F - 55.0 °F 93% 30.01 in 1.0 mi Calm Calm - N/A   Overcast
12:00 PM 57.2 °F - 55.4 °F 94% 30.00 in 5.0 mi Calm Calm - N/A   Overcast
12:53 PM 64.0 °F - 59.0 °F 84% 29.98 in 5.0 mi Calm Calm - N/A   Haze
1:53 PM 63.0 °F - 57.9 °F 84% 29.97 in 5.0 mi NNW 4.6 mph - N/A   Haze
2:53 PM 62.1 °F - 57.0 °F 84% 29.97 in 6.0 mi NNW 4.6 mph - N/A   Haze
3:53 PM 62.1 °F - 57.9 °F 86% 29.97 in 8.0 mi North 4.6 mph - N/A   Overcast
4:53 PM 61.0 °F - 57.9 °F 90% 29.97 in 5.0 mi NNE 4.6 mph - N/A   Overcast
5:53 PM 62.1 °F - 59.0 °F 90% 29.96 in 5.0 mi Calm Calm - N/A   Overcast
6:34 PM 60.8 °F - 59.0 °F 94% 29.95 in 2.5 mi Calm Calm - 0.00 in Rain Light Rain
6:53 PM 61.0 °F - 59.0 °F 93% 29.95 in 3.0 mi NE 4.6 mph - 0.05 in Rain Light Rain
7:00 PM 62.6 °F - 60.8 °F 94% 29.95 in 4.0 mi Calm Calm - 0.00 in Rain Light Rain
7:48 PM 60.8 °F - 59.0 °F 94% 29.95 in 9.0 mi North 4.6 mph - 0.00 in   Overcast
7:53 PM 60.1 °F - 57.9 °F 93% 29.95 in 10.0 mi North 5.8 mph - 0.00 in   Overcast
8:53 PM 59.0 °F - 57.0 °F 93% 29.96 in 9.0 mi NNW 4.6 mph - 0.00 in   Overcast
9:17 PM 57.2 °F - 57.2 °F 100% 29.96 in 3.0 mi Calm Calm - 0.00 in Rain Light Rain
9:35 PM 57.2 °F - 57.2 °F 100% 29.96 in 2.0 mi NNW 3.5 mph - 0.00 in Rain Light Rain
9:53 PM 57.9 °F - 57.0 °F 97% 29.96 in 2.0 mi North 4.6 mph - 0.00 in   Overcast
10:04 PM 57.2 °F - 57.2 °F 100% 29.96 in 1.5 mi Calm Calm - N/A   Overcast
10:53 PM 57.9 °F - 57.0 °F 97% 29.95 in 1.0 mi NNW 3.5 mph - N/A   Mist
11:00 PM 57.2 °F - 57.2 °F 100% 29.94 in 0.8 mi Calm Calm - N/A   Mist